Regional Weather Roundup
Issued by NWS Austin/San Antonio, TX

Home | Current Version | Previous Version | Text Only | Print | Product List | Glossary On
Versions: 1 2 3 4 5 6 7 8 9 10 11 12 13 14 15 16 17 18 19 20 21 22 23 24 25 26 27 28 29 30 31 32 33 34 35 36 37 38 39 40 41 42 43 44 45 46 47 48 49 50
000
ASUS44 KEWX 271502
RWREWX
SOUTH TEXAS REGIONAL WEATHER ROUNDUP
NATIONAL WEATHER SERVICE AUSTIN/SAN ANTONIO TX
1000 AM CDT THU APR 27 2017

NOTE: "FAIR" INDICATED FEW OR NO CLOUDS BELOW 12,000 FEET WITH NO
SIGNIFICANT WEATHER AND/OR OBSTRUCTIONS TO VISIBILITY.

* - THESE STATIONS ARE NOT NWS OR FAA STATIONS...AND ARE NOT SUBJECT
    TO NWS AND FAA QUALITY CONTROL.

TXZ171-172-183>190-271600-
TEXAS HILL COUNTRY AND EDWARDS PLATEAU

CITY           SKY/WX    TMP DP  RH WIND       PRES   REMARKS
JUNCTION       SUNNY     68  40  35 S9        29.81S
*LLANO         SUNNY     63  46  55 SE12      29.86S
BURNET         SUNNY     63  46  54 SE10G17   29.85F
*HORSESHOE BAY SUNNY     64  47  55 SE8       29.84S
*KERRVILLE     SUNNY     62  49  60 S5        29.85S
*FREDERICKSBRG SUNNY     61  43  51 SE9       29.85S
*ROCKSPRINGS   SUNNY     63  45  51 S13G21    29.86R
*BOERNE STAGE  SUNNY     63  45  51 SE8       29.86R
*CASTROVILLE   SUNNY     66  45  46 SE6       29.86F
HONDO          SUNNY     65  48  54 SE7       29.85F
*UVALDE        SUNNY     64  49  57 CALM      29.86S
DEL RIO        SUNNY     70  45  40 SE20      29.81F
LAUGHLIN AFB   NOT AVBL
CARRIZO SPRGS  SUNNY     70  45  40 SE12      29.83S
*EAGLE PASS    NOT AVBL
$$

TXZ173-191>194-202-209-217>225-228-271600-
CENTRAL AND SOUTH CENTRAL TEXAS

CITY           SKY/WX    TMP DP  RH WIND       PRES   REMARKS
GEORGETOWN     SUNNY     63  45  51 S12       29.85S
AUSTIN/BERGSTM MOSUNNY   66  45  46 SE7       29.84F
AUSTIN/MABRY   SUNNY     64  46  52 SE6       29.85F
*AUSTIN/EXEC   FAIR      64  46  52 S3        29.85F
*LAGO VISTA    SUNNY     63  47  55 SE9       29.85F
SAN MARCOS     SUNNY     64  46  52 E9        29.85F
NEW BRAUNFELS  SUNNY     67  48  50 E8        29.83F
RANDOLPH AFB   SUNNY     66  46  47 E8        29.84R
PT SAN ANTONIO SUNNY     67  46  46 SE6       29.83R
SAN ANTONIO    MOSUNNY   65  45  48 VRB5      29.85R
STINSON FIELD  SUNNY     67  47  48 VRB3      29.83R
*LA GRANGE     SUNNY     67  49  52 E5        29.83R
*GIDDINGS      SUNNY     64  46  52 E8        29.85S
*GONZALES      SUNNY     68  48  48 E10       29.82F
$$

TXZ163>164-176>182-195>201-210>213-226-227-235-271600-
SOUTHEAST TEXAS

CITY           SKY/WX    TMP DP  RH WIND       PRES   REMARKS
COLLEGE STN    SUNNY     65  46  50 E10       29.83F
*BRYAN         SUNNY     64  47  55 E9        29.85F
*CALDWELL      NOT AVBL
*CROCKETT      SUNNY     59  48  67 E6        29.88S
*BRENHAM       SUNNY     65  48  53 E8        29.84S
HUNTSVILLE     SUNNY     65  43  44 E6        29.84S
CONROE         MOSUNNY   63  47  55 E10       29.85S
HOUSTON BUSH   MOSUNNY   65  47  52 E13       29.84F
HOUSTON HOBBY  MOSUNNY   64  48  56 E12       29.84S
*HOUSTON SW AP SUNNY     65  47  51 E10       29.86S
PEARLAND       SUNNY     68  48  48 E12       29.86R
HOUSTON HOOKS  SUNNY     64  46  52 E9        29.84F
ELLINGTON FLD  SUNNY     64  48  55 NE9       29.86S
SUGAR LAND     SUNNY     67  47  48 E12       29.84R
*HOUSTON EXEC  SUNNY     64  46  52 E12       29.85S
*CLEVELAND MUN SUNNY     63  50  62 E3        29.86S
*WHARTON       SUNNY     66  44  44 E12       29.85R
*COLUMBUS      FAIR      65  46  49 E7        29.85S
*EAGLE LAKE    SUNNY     66  50  55 E7        29.84S
$$

TXZ214>216-236>238-271600-
THE UPPER TEXAS COAST

CITY           SKY/WX    TMP DP  RH WIND       PRES   REMARKS
*ORANGE        SUNNY     63  50  63 NE9       29.87S
PORT ARTHUR    SUNNY     65  48  54 NE14      29.85R
GALVESTON      SUNNY     69  55  60 NE16      29.85R
ANGLETON       SUNNY     68  50  52 E12       29.84R
*BAY CITY      SUNNY     67  51  57 E9        29.84R
PALACIOS       SUNNY     68  48  48 E16       29.82F
$$

TXZ229>234-239>247-271600-
TEXAS COASTAL BEND AND RIO GRANDE PLAINS

CITY           SKY/WX    TMP DP  RH WIND       PRES   REMARKS
VICTORIA       SUNNY     68  49  50 E15       29.83F
*BEEVILLE      SUNNY     71  51  49 E10G21    29.82F
ROCKPORT       SUNNY     75  56  51 E15       29.82R
*PORT ARANSAS  SUNNY     74  56  54 E12G20    29.82F
*PORT LAVACA   SUNNY     68  53  59 E13       29.83S
*INGLESIDE     SUNNY     76  57  50 E18G25    29.82S
CORPUS CHRISTI MOSUNNY   75  61  61 E16       29.82S
CORPUS NAS     MOSUNNY   78  58  49 E16       29.82S
*ROBSTOWN      SUNNY     77  61  57 E13G18    29.82F
ALICE          SUNNY     73  56  54 SE12      29.82F
KINGSVILLE NAS MOSUNNY   77  65  66 E14       29.82F
COTULLA        SUNNY     70  45  40 SE13      29.84S
*FAITH RANCH   SUNNY     73  41  31 SE12G21   29.83S
LAREDO         SUNNY     73  51  46 E17       29.83F
$$

TXZ248>255-271600-
DEEP SOUTH TEXAS

CITY           SKY/WX    TMP DP  RH WIND       PRES   REMARKS
BROWNSVILLE    CLOUDY    80  72  76 E12       29.79S
PORT ISABEL    CLOUDY    78  71  79 E16       29.80R
*SOUTH PADRE   NOT AVBL
HARLINGEN      CLOUDY    78  71  79 E13       29.79R
*HEBBRONVILLE  SUNNY     70  54  56 SE12      29.85S
MCALLEN        CLOUDY    79  66  64 NE8       29.81S
*WESLACO       CLOUDY    76  67  72 NE6       29.80R
FALFURRIAS     MOSUNNY   75  60  60 E8        29.82S
EDINBURG       CLOUDY    77  63  61 E6        29.81S
*ZAPATA        SUNNY     74  55  51 E15       29.82S
$$

TXZ213>215-236>238-242>244-246-247-251-254-255-271600-
CMAN STATIONS

STATION/POSITION TIME  TEMP    WIND        PRES    WAVE
                       AIR SEA DIR/SP/G            HT/PER
                 (UTC) (F)     (DEG/KT/KT) (MB)    (FT/S)
SABINE PASS      1430   62 75   50/ 12/ 16 1012.1
SEA RIM ST PARK  1400   61      50/ 12/ 17 1011.0
NORTH JETTY/GLS  1430      73   50/ 17/ 20 1010.0
EAGLE POINT      1424   61 72   70/ 13/ 16 1010.6
MORGANS POINT    1424   61 75   60/ 10/ 13 1010.6
MISSION/ARANSAS  1400   70                 1010.0
PORT O`CONNOR    1424   66      60/ 15/ 18 1009.4
PORT ARANSAS     1400   71 77   70/ 17/ 19 1009.5
MALAQUITE BEACH  1424   72 76   70/ 15/ 19 1010.2
BAFFIN BAY       1424   73 72   40/ 16/ 19 1009.7
PORT ISABEL      1424   76 80   20/  2/  5 1008.6
$$




USA.gov is the U.S. government's official web portal to all federal, state and local government web resources and services.